BEL572 EKCH-EBBR

Flight info

Callsign BEL572
Flight time 1h 19m
Altitude 36000
Route NEXEN T503 GIMRU DCT MICOS DCT KEGAB DCT ABAMI Z717 NEREL T855 BATTY
Aircraft A320/M-SDE3FGHIRWY/LB1

Departure

Time 2026-04-26 14:47
Airport Copenhagen Kastrup Airport (EKCH)

Arrival

Time 2026-04-26 16:07
Airport Brussels Airport (EBBR)
Time Latitude Longitude Altitude Speed Heading
2026-04-26 14:09 55.62631 12.64433 24 ft 0 kts 66°
2026-04-26 14:11 55.62630 12.64433 24 ft 0 kts 66°
2026-04-26 14:20 55.62630 12.64432 24 ft 0 kts 66°
2026-04-26 14:35 55.62627 12.64420 24 ft 4 kts 66°
2026-04-26 14:35 55.62617 12.64376 18 ft 4 kts 66°
2026-04-26 14:35 55.62606 12.64332 24 ft 4 kts 66°
2026-04-26 14:36 55.62598 12.64298 28 ft 4 kts 67°
2026-04-26 14:36 55.62587 12.64255 27 ft 4 kts 62°
2026-04-26 14:36 55.62572 12.64216 27 ft 3 kts 36°
2026-04-26 14:36 55.62554 12.64192 27 ft 4 kts 61°
2026-04-26 14:37 55.62549 12.64149 28 ft 4 kts 105°
2026-04-26 14:37 55.62560 12.64109 26 ft 4 kts 123°
2026-04-26 14:37 55.62575 12.64070 29 ft 3 kts 123°
2026-04-26 14:37 55.62577 12.64063 28 ft 3 kts 123°
2026-04-26 14:40 55.62566 12.64092 25 ft 7 kts 123°
2026-04-26 14:40 55.62511 12.64240 24 ft 16 kts 124°
2026-04-26 14:40 55.62447 12.64392 24 ft 15 kts 129°
2026-04-26 14:40 55.62366 12.64436 23 ft 13 kts 195°
2026-04-26 14:41 55.62343 12.64425 23 ft 0 kts 195°
2026-04-26 14:41 55.62319 12.64413 25 ft 11 kts 195°
2026-04-26 14:42 55.62234 12.64398 23 ft 13 kts 169°
2026-04-26 14:42 55.62111 12.64437 23 ft 20 kts 170°
2026-04-26 14:42 55.61979 12.64481 24 ft 18 kts 169°
2026-04-26 14:42 55.61861 12.64520 24 ft 16 kts 169°
2026-04-26 14:43 55.61756 12.64556 24 ft 15 kts 170°
2026-04-26 14:43 55.61663 12.64548 24 ft 14 kts 208°
2026-04-26 14:43 55.61546 12.64414 26 ft 25 kts 213°
2026-04-26 14:43 55.61394 12.64239 24 ft 26 kts 214°
2026-04-26 14:44 55.61238 12.64060 25 ft 27 kts 213°
2026-04-26 14:44 55.61079 12.63878 25 ft 28 kts 213°
2026-04-26 14:44 55.60920 12.63695 24 ft 24 kts 213°
2026-04-26 14:44 55.60801 12.63560 26 ft 21 kts 213°
2026-04-26 14:45 55.60678 12.63414 25 ft 22 kts 215°
2026-04-26 14:45 55.60604 12.63307 24 ft 19 kts 221°
2026-04-26 14:45 55.60494 12.63141 24 ft 16 kts 218°
2026-04-26 14:45 55.60402 12.63163 24 ft 12 kts 132°
2026-04-26 14:46 55.60353 12.63262 25 ft 8 kts 129°
2026-04-26 14:46 55.60339 12.63327 29 ft 6 kts 81°
2026-04-26 14:46 55.60371 12.63395 26 ft 9 kts 40°
2026-04-26 14:46 55.60543 12.63654 24 ft 68 kts 40°
2026-04-26 14:47 55.61063 12.64466 24 ft 130 kts 40°
2026-04-26 14:47 55.61871 12.65714 62 ft 173 kts 35°
2026-04-26 14:47 55.62740 12.67099 807 ft 166 kts 38°
2026-04-26 14:47 55.63601 12.68457 1550 ft 167 kts 37°
2026-04-26 14:48 55.64514 12.69887 1951 ft 185 kts 37°
2026-04-26 14:48 55.65546 12.71461 2228 ft 208 kts 36°
2026-04-26 14:48 55.66707 12.73174 2579 ft 228 kts 36°
2026-04-26 14:48 55.67988 12.75052 3003 ft 250 kts 36°
2026-04-26 14:49 55.69165 12.77412 3760 ft 264 kts 57°
2026-04-26 14:49 55.69745 12.80545 4586 ft 275 kts 83°
2026-04-26 14:49 55.69542 12.83939 5468 ft 282 kts 109°
2026-04-26 14:49 55.68544 12.86929 6306 ft 285 kts 135°
2026-04-26 14:50 55.66923 12.88916 7097 ft 287 kts 160°
2026-04-26 14:50 55.65038 12.90151 7837 ft 291 kts 164°
2026-04-26 14:50 55.63043 12.90870 8567 ft 295 kts 180°
2026-04-26 14:50 55.60994 12.90651 9298 ft 297 kts 196°
2026-04-26 14:51 55.59037 12.89514 10039 ft 297 kts 211°
2026-04-26 14:51 55.57307 12.87548 10686 ft 298 kts 226°
2026-04-26 14:51 55.55785 12.84900 10919 ft 318 kts 232°
2026-04-26 14:51 55.54202 12.81983 11171 ft 338 kts 231°
2026-04-26 14:52 55.52551 12.78954 11770 ft 345 kts 231°
2026-04-26 14:52 55.50886 12.75869 12480 ft 348 kts 233°
2026-04-26 14:52 55.49281 12.72657 13205 ft 350 kts 235°
2026-04-26 14:52 55.47712 12.69350 13934 ft 353 kts 236°
2026-04-26 14:53 55.46149 12.65995 14586 ft 355 kts 236°
2026-04-26 14:53 55.44576 12.62613 15228 ft 358 kts 236°
2026-04-26 14:53 55.42988 12.59226 15866 ft 360 kts 236°
2026-04-26 14:53 55.41377 12.55821 16499 ft 363 kts 236°
2026-04-26 14:54 55.39747 12.52403 17127 ft 366 kts 236°
2026-04-26 14:54 55.38103 12.48974 17750 ft 368 kts 236°
2026-04-26 14:54 55.36443 12.45525 18371 ft 371 kts 236°
2026-04-26 14:54 55.34770 12.42050 18933 ft 374 kts 236°
2026-04-26 14:55 55.33084 12.38557 19470 ft 376 kts 236°
2026-04-26 14:55 55.31384 12.35046 20016 ft 378 kts 236°
2026-04-26 14:55 55.29673 12.31516 20562 ft 381 kts 236°
2026-04-26 14:55 55.27951 12.27964 21101 ft 383 kts 236°
2026-04-26 14:56 55.26219 12.24390 21637 ft 386 kts 235°
2026-04-26 14:56 55.24472 12.20798 22181 ft 388 kts 235°
2026-04-26 14:56 55.22713 12.17187 22683 ft 391 kts 235°
2026-04-26 14:56 55.20924 12.13578 23181 ft 395 kts 232°
2026-04-26 14:57 55.18840 12.10356 23663 ft 405 kts 222°
2026-04-26 14:57 55.16562 12.07441 24096 ft 407 kts 222°
2026-04-26 14:57 55.14265 12.04513 24497 ft 409 kts 221°
2026-04-26 14:57 55.11961 12.01581 24903 ft 411 kts 221°
2026-04-26 14:58 55.09644 11.98634 25295 ft 412 kts 221°
2026-04-26 14:58 55.07323 11.95684 25679 ft 414 kts 221°
2026-04-26 14:58 55.04994 11.92722 26061 ft 415 kts 221°
2026-04-26 14:58 55.02659 11.89746 26430 ft 417 kts 221°
2026-04-26 14:59 55.00311 11.86757 26792 ft 419 kts 221°
2026-04-26 14:59 54.97955 11.83767 27155 ft 420 kts 221°
2026-04-26 14:59 54.95586 11.80772 27500 ft 422 kts 221°
2026-04-26 14:59 54.94013 11.78785 27720 ft 423 kts 221°
2026-04-26 15:00 54.90823 11.74762 28188 ft 425 kts 221°
2026-04-26 15:00 54.88424 11.71744 28522 ft 426 kts 221°
2026-04-26 15:00 54.86015 11.68713 28833 ft 428 kts 221°
2026-04-26 15:00 54.83600 11.65680 29145 ft 430 kts 221°
2026-04-26 15:01 54.81173 11.62637 29444 ft 431 kts 221°
2026-04-26 15:01 54.78735 11.59587 29727 ft 433 kts 221°
2026-04-26 15:01 54.76290 11.56529 30002 ft 435 kts 221°
2026-04-26 15:01 54.73832 11.53458 30279 ft 436 kts 221°
2026-04-26 15:02 54.71366 11.50383 30522 ft 437 kts 221°
2026-04-26 15:02 54.68933 11.47231 30745 ft 437 kts 223°
2026-04-26 15:02 54.66558 11.43958 30952 ft 438 kts 224°
2026-04-26 15:02 54.64218 11.40599 31221 ft 436 kts 225°
2026-04-26 15:03 54.62679 11.38359 31412 ft 436 kts 225°
2026-04-26 15:03 54.61805 11.37083 31518 ft 436 kts 225°
2026-04-26 15:03 54.59485 11.33715 31799 ft 435 kts 225°
2026-04-26 15:03 54.57162 11.30382 32079 ft 435 kts 225°
2026-04-26 15:04 54.54829 11.27075 32360 ft 434 kts 224°
2026-04-26 15:04 54.52485 11.23788 32642 ft 434 kts 224°
2026-04-26 15:04 54.50146 11.20523 32919 ft 433 kts 224°
2026-04-26 15:04 54.47808 11.17268 33208 ft 432 kts 224°
2026-04-26 15:05 54.45472 11.14015 33485 ft 432 kts 224°
2026-04-26 15:05 54.40813 11.07528 34049 ft 430 kts 224°
2026-04-26 15:05 54.38488 11.04295 34324 ft 430 kts 224°
2026-04-26 15:06 54.36165 11.01068 34559 ft 429 kts 224°
2026-04-26 15:06 54.33843 10.97849 34792 ft 429 kts 224°
2026-04-26 15:06 54.31520 10.94636 35009 ft 429 kts 224°
2026-04-26 15:06 54.29198 10.91426 35217 ft 429 kts 224°
2026-04-26 15:07 54.24552 10.85007 35622 ft 429 kts 224°
2026-04-26 15:07 54.22232 10.81805 35806 ft 429 kts 224°
2026-04-26 15:07 54.19903 10.78599 35986 ft 430 kts 224°
2026-04-26 15:08 54.17573 10.75399 36164 ft 430 kts 224°
2026-04-26 15:08 54.15241 10.72206 36295 ft 430 kts 223°
2026-04-26 15:08 54.10580 10.65837 36316 ft 429 kts 224°
2026-04-26 15:09 54.05930 10.59489 36312 ft 429 kts 223°
2026-04-26 15:09 54.01271 10.53145 36310 ft 429 kts 223°
2026-04-26 15:10 53.97396 10.47897 36305 ft 429 kts 223°
2026-04-26 15:10 53.92090 10.40735 36305 ft 429 kts 223°
2026-04-26 15:11 53.87391 10.34409 36307 ft 429 kts 223°
2026-04-26 15:11 53.82747 10.28171 36307 ft 429 kts 223°
2026-04-26 15:12 53.78074 10.21906 36305 ft 429 kts 223°
2026-04-26 15:12 53.73401 10.15664 36301 ft 428 kts 223°
2026-04-26 15:13 53.68719 10.09432 36297 ft 428 kts 223°
2026-04-26 15:13 53.64040 10.03215 36295 ft 428 kts 223°
2026-04-26 15:14 53.60145 9.98059 36296 ft 428 kts 223°
2026-04-26 15:14 53.55487 9.91907 36323 ft 428 kts 222°
2026-04-26 15:15 53.50797 9.85737 36323 ft 429 kts 222°
2026-04-26 15:15 53.46100 9.79564 36323 ft 429 kts 222°
2026-04-26 15:16 53.41399 9.73399 36319 ft 429 kts 222°
2026-04-26 15:16 53.36693 9.67255 36316 ft 429 kts 222°
2026-04-26 15:17 53.32741 9.62123 36314 ft 429 kts 222°
2026-04-26 15:17 53.27264 9.55007 36309 ft 429 kts 222°
2026-04-26 15:18 53.22554 9.48896 36305 ft 429 kts 222°
2026-04-26 15:18 53.17828 9.42801 36304 ft 430 kts 221°
2026-04-26 15:19 53.13094 9.36718 36307 ft 430 kts 221°
2026-04-26 15:19 53.08354 9.30645 36305 ft 430 kts 221°
2026-04-26 15:20 53.03618 9.24572 36313 ft 430 kts 221°
2026-04-26 15:20 52.98888 9.18512 36311 ft 430 kts 221°
2026-04-26 15:21 52.94139 9.12483 36311 ft 430 kts 221°
2026-04-26 15:21 52.89390 9.06457 36303 ft 430 kts 221°
2026-04-26 15:22 52.84631 9.00434 36306 ft 431 kts 221°
2026-04-26 15:22 52.79866 8.94425 36300 ft 431 kts 221°
2026-04-26 15:23 52.75102 8.88433 36304 ft 431 kts 221°
2026-04-26 15:23 52.70332 8.82449 36297 ft 431 kts 221°
2026-04-26 15:24 52.65558 8.76465 36297 ft 431 kts 221°
2026-04-26 15:24 52.60770 8.70494 36298 ft 432 kts 221°
2026-04-26 15:25 52.56779 8.65530 36296 ft 433 kts 221°
2026-04-26 15:25 52.51157 8.58563 36298 ft 434 kts 220°
2026-04-26 15:26 52.46338 8.52609 36299 ft 434 kts 220°
2026-04-26 15:26 52.41516 8.46651 36299 ft 434 kts 220°
2026-04-26 15:27 52.36690 8.40703 36298 ft 434 kts 220°
2026-04-26 15:27 52.31840 8.34757 36296 ft 435 kts 220°
2026-04-26 15:28 52.27011 8.28850 36297 ft 435 kts 220°
2026-04-26 15:28 52.22163 8.22939 36294 ft 435 kts 220°
2026-04-26 15:29 52.17306 8.17034 36293 ft 436 kts 220°
2026-04-26 15:30 52.07569 8.05217 36293 ft 437 kts 220°
2026-04-26 15:30 52.02677 7.99334 36293 ft 438 kts 220°
2026-04-26 15:31 51.95329 7.90516 36292 ft 438 kts 220°
2026-04-26 15:32 51.88800 7.82693 36294 ft 439 kts 220°
2026-04-26 15:32 51.83091 7.75873 36291 ft 439 kts 220°
2026-04-26 15:33 51.78166 7.70018 36292 ft 440 kts 220°
2026-04-26 15:33 51.73233 7.64163 36290 ft 441 kts 220°
2026-04-26 15:34 51.68289 7.58307 36290 ft 441 kts 220°
2026-04-26 15:34 51.63331 7.52451 36163 ft 443 kts 220°
2026-04-26 15:35 51.60849 7.49528 35912 ft 442 kts 220°
2026-04-26 15:35 51.58364 7.46607 35656 ft 443 kts 220°
2026-04-26 15:35 51.55878 7.43689 35412 ft 443 kts 220°
2026-04-26 15:35 51.53385 7.40767 35159 ft 444 kts 220°
2026-04-26 15:36 51.50887 7.37846 34921 ft 444 kts 220°
2026-04-26 15:36 51.48388 7.34932 34673 ft 445 kts 220°
2026-04-26 15:36 51.45883 7.32009 34428 ft 446 kts 220°
2026-04-26 15:36 51.43439 7.28968 34167 ft 443 kts 226°
2026-04-26 15:37 51.41311 7.25433 33885 ft 439 kts 235°
2026-04-26 15:37 51.39480 7.21538 33612 ft 438 kts 237°
2026-04-26 15:37 51.37660 7.17604 33320 ft 439 kts 237°
2026-04-26 15:37 51.35832 7.13686 33063 ft 440 kts 237°
2026-04-26 15:38 51.33997 7.09770 32785 ft 440 kts 237°
2026-04-26 15:38 51.32163 7.05859 32513 ft 438 kts 237°
2026-04-26 15:38 51.30333 7.01963 32253 ft 437 kts 237°
2026-04-26 15:38 51.28509 6.98087 31987 ft 435 kts 237°
2026-04-26 15:39 51.26695 6.94229 31731 ft 434 kts 237°
2026-04-26 15:39 51.24888 6.90382 31474 ft 432 kts 237°
2026-04-26 15:39 51.23091 6.86559 31222 ft 430 kts 237°
2026-04-26 15:39 51.21905 6.84036 31055 ft 429 kts 237°
2026-04-26 15:40 51.19510 6.78962 30719 ft 427 kts 237°
2026-04-26 15:40 51.17723 6.75190 30473 ft 425 kts 237°
2026-04-26 15:40 51.15938 6.71425 29976 ft 425 kts 237°
2026-04-26 15:40 51.14162 6.67679 29280 ft 423 kts 237°
2026-04-26 15:41 51.12388 6.63950 28588 ft 422 kts 236°
2026-04-26 15:41 51.10617 6.60237 27908 ft 420 kts 236°
2026-04-26 15:41 51.08829 6.56579 27250 ft 419 kts 233°
2026-04-26 15:41 51.06817 6.53229 26613 ft 419 kts 228°
2026-04-26 15:42 51.04756 6.49965 25987 ft 417 kts 228°
2026-04-26 15:42 51.02702 6.46722 25373 ft 415 kts 228°
2026-04-26 15:42 51.00658 6.43500 24773 ft 413 kts 228°
2026-04-26 15:42 50.98625 6.40298 24188 ft 411 kts 228°
2026-04-26 15:43 50.96596 6.37109 23574 ft 409 kts 227°
2026-04-26 15:43 50.94579 6.33936 22893 ft 408 kts 227°
2026-04-26 15:43 50.90562 6.27615 21574 ft 406 kts 227°
2026-04-26 15:44 50.88556 6.24469 20936 ft 405 kts 227°
2026-04-26 15:44 50.84551 6.18206 19701 ft 404 kts 227°
2026-04-26 15:44 50.83864 6.17135 19492 ft 404 kts 226°
2026-04-26 15:45 50.79918 6.11083 18250 ft 381 kts 227°
2026-04-26 15:45 50.78064 6.08185 17584 ft 369 kts 227°
2026-04-26 15:46 50.74529 6.02609 16292 ft 350 kts 229°
2026-04-26 15:46 50.72897 5.99790 15669 ft 350 kts 231°
2026-04-26 15:46 50.71305 5.96862 15040 ft 353 kts 232°
2026-04-26 15:46 50.70257 5.94884 14638 ft 355 kts 232°
2026-04-26 15:47 50.68376 5.90603 13808 ft 356 kts 245°
2026-04-26 15:47 50.67144 5.83355 13094 ft 331 kts 268°
2026-04-26 15:47 50.67230 5.79779 12831 ft 324 kts 279°
2026-04-26 15:48 50.67762 5.76354 12566 ft 321 kts 291°
2026-04-26 15:48 50.68693 5.73170 12312 ft 319 kts 298°
2026-04-26 15:48 50.69703 5.70061 12056 ft 318 kts 297°
2026-04-26 15:48 50.70705 5.66954 11798 ft 317 kts 297°
2026-04-26 15:49 50.71697 5.63859 11549 ft 316 kts 297°
2026-04-26 15:49 50.72686 5.60763 11303 ft 315 kts 297°
2026-04-26 15:49 50.73670 5.57674 11050 ft 314 kts 297°
2026-04-26 15:49 50.74638 5.54629 10811 ft 314 kts 297°
2026-04-26 15:50 50.75614 5.51558 10570 ft 313 kts 297°
2026-04-26 15:50 50.76589 5.48495 10328 ft 312 kts 297°
2026-04-26 15:50 50.77554 5.45469 10148 ft 303 kts 297°
2026-04-26 15:50 50.78482 5.42550 10011 ft 292 kts 297°
2026-04-26 15:51 50.79377 5.39734 9888 ft 283 kts 297°
2026-04-26 15:51 50.80251 5.36980 9735 ft 280 kts 297°
2026-04-26 15:51 50.81121 5.34235 9616 ft 279 kts 297°
2026-04-26 15:51 50.81986 5.31499 9483 ft 278 kts 297°
2026-04-26 15:52 50.82849 5.28764 9354 ft 278 kts 297°
2026-04-26 15:52 50.83709 5.26031 9273 ft 277 kts 297°
2026-04-26 15:52 50.84566 5.23297 9254 ft 278 kts 297°
2026-04-26 15:52 50.85137 5.21483 9166 ft 277 kts 297°
2026-04-26 15:53 50.86286 5.17842 8989 ft 277 kts 297°
2026-04-26 15:53 50.87102 5.15092 8864 ft 276 kts 291°
2026-04-26 15:53 50.87638 5.12172 8730 ft 276 kts 281°
2026-04-26 15:53 50.87863 5.09158 8607 ft 276 kts 275°
2026-04-26 15:54 50.87997 5.06120 8480 ft 276 kts 274°
2026-04-26 15:54 50.88133 5.03098 8354 ft 276 kts 275°
2026-04-26 15:54 50.88270 5.00068 8225 ft 275 kts 275°
2026-04-26 15:54 50.88405 4.97042 8097 ft 275 kts 275°
2026-04-26 15:55 50.88537 4.94022 7976 ft 275 kts 275°
2026-04-26 15:55 50.88667 4.91005 7851 ft 275 kts 274°
2026-04-26 15:55 50.88793 4.88081 7726 ft 274 kts 275°
2026-04-26 15:55 50.88928 4.84972 7595 ft 274 kts 275°
2026-04-26 15:56 50.89059 4.81964 7476 ft 274 kts 275°
2026-04-26 15:56 50.89189 4.78960 7352 ft 273 kts 275°
2026-04-26 15:56 50.89319 4.75960 7229 ft 273 kts 274°
2026-04-26 15:56 50.89448 4.72961 7108 ft 273 kts 274°
2026-04-26 15:57 50.89531 4.70974 7032 ft 273 kts 274°
2026-04-26 15:57 50.89655 4.67983 6907 ft 272 kts 274°
2026-04-26 15:57 50.89779 4.64990 6789 ft 272 kts 274°
2026-04-26 15:57 50.89862 4.62970 6706 ft 272 kts 274°
2026-04-26 15:58 50.90022 4.59010 6537 ft 272 kts 274°
2026-04-26 15:58 50.90141 4.56033 6411 ft 271 kts 274°
2026-04-26 15:58 50.90299 4.53071 6280 ft 270 kts 280°
2026-04-26 15:58 50.90598 4.50124 6151 ft 270 kts 279°
2026-04-26 15:59 50.90888 4.47188 6024 ft 270 kts 279°
2026-04-26 15:59 50.91174 4.44257 5898 ft 269 kts 279°
2026-04-26 15:59 50.91459 4.41326 5767 ft 269 kts 279°
2026-04-26 15:59 50.91746 4.38400 5638 ft 268 kts 279°
2026-04-26 16:00 50.92032 4.35484 5515 ft 267 kts 279°
2026-04-26 16:00 50.92316 4.32578 5391 ft 267 kts 279°
2026-04-26 16:00 50.92595 4.29677 5267 ft 266 kts 279°
2026-04-26 16:00 50.92872 4.26758 4886 ft 268 kts 279°
2026-04-26 16:01 50.93146 4.23856 4470 ft 265 kts 279°
2026-04-26 16:01 50.93231 4.20933 3984 ft 267 kts 263°
2026-04-26 16:01 50.92693 4.18150 3610 ft 265 kts 238°
2026-04-26 16:01 50.91350 4.16227 3207 ft 264 kts 203°
2026-04-26 16:02 50.89569 4.15676 2796 ft 263 kts 176°
2026-04-26 16:02 50.87818 4.16377 2379 ft 259 kts 151°
2026-04-26 16:02 50.86462 4.18163 2014 ft 252 kts 121°
2026-04-26 16:02 50.85975 4.19769 1978 ft 237 kts 103°
2026-04-26 16:03 50.85989 4.23002 1987 ft 210 kts 69°
2026-04-26 16:03 50.86530 4.25060 1981 ft 196 kts 71°
2026-04-26 16:03 50.86840 4.27081 2019 ft 181 kts 77°
2026-04-26 16:03 50.87068 4.28960 1979 ft 166 kts 78°
2026-04-26 16:04 50.87266 4.30672 1964 ft 150 kts 77°
2026-04-26 16:04 50.87423 4.32249 1994 ft 141 kts 80°
2026-04-26 16:04 50.87550 4.33775 1914 ft 138 kts 80°
2026-04-26 16:04 50.87669 4.35299 1818 ft 138 kts 80°
2026-04-26 16:05 50.87784 4.36811 1608 ft 139 kts 79°
2026-04-26 16:05 50.87975 4.38286 1316 ft 133 kts 76°
2026-04-26 16:05 50.88203 4.39689 1131 ft 134 kts 66°
2026-04-26 16:05 50.88597 4.41032 899 ft 134 kts 65°
2026-04-26 16:06 50.88974 4.42383 680 ft 133 kts 64°
2026-04-26 16:06 50.89362 4.43721 511 ft 132 kts 65°
2026-04-26 16:06 50.89750 4.45056 335 ft 135 kts 65°
2026-04-26 16:06 50.90135 4.46401 198 ft 132 kts 66°
2026-04-26 16:07 50.90470 4.47565 183 ft 96 kts 65°
2026-04-26 16:07 50.90678 4.48280 192 ft 47 kts 65°
2026-04-26 16:07 50.90776 4.48634 191 ft 32 kts 67°
2026-04-26 16:07 50.90869 4.48940 190 ft 30 kts 63°
2026-04-26 16:08 50.90951 4.49230 190 ft 26 kts 68°
2026-04-26 16:08 50.90983 4.49510 185 ft 26 kts 89°
2026-04-26 16:08 50.90964 4.49666 194 ft 11 kts 138°
2026-04-26 16:08 50.90903 4.49736 184 ft 10 kts 156°
2026-04-26 16:09 50.90848 4.49745 184 ft 7 kts 232°
2026-04-26 16:09 50.90811 4.49633 185 ft 16 kts 244°
2026-04-26 16:09 50.90756 4.49443 184 ft 21 kts 245°
2026-04-26 16:09 50.90693 4.49225 190 ft 23 kts 245°
2026-04-26 16:10 50.90629 4.49005 188 ft 18 kts 245°
2026-04-26 16:10 50.90586 4.48855 192 ft 14 kts 245°
2026-04-26 16:10 50.90547 4.48721 194 ft 13 kts 245°
2026-04-26 16:10 50.90512 4.48601 187 ft 11 kts 245°
2026-04-26 16:11 50.90481 4.48496 186 ft 10 kts 239°
2026-04-26 16:11 50.90443 4.48504 192 ft 5 kts 158°
2026-04-26 16:11 50.90416 4.48524 193 ft 4 kts 155°
2026-04-26 16:11 50.90396 4.48539 192 ft 2 kts 155°
2026-04-26 16:12 50.90394 4.48541 191 ft 0 kts 155°